Location: Ballingbuur
(53.0000°N, 5.7667°E)
Time: 19:34:01
(UTC+00:00)

CZ-2C R/B - Pass Details

Date: 29 November 2020
Orbit: 668 x 783 km, 98.2° (Epoch: 25 January)

Event Time Altitude Azimuth Distance (km) Brightness Sun altitude
Rises 04:31:03 0° 10° (N) 3,043 5.7 -25.1°
Reaches altitude 10° 04:33:23 10° 4° (N) 2,117 4.8 -24.8°
Enters shadow 04:34:24 16° 359° (N) 1,737 4.3 -24.6°
